COSMOS 886

导读

COSMOS 886(宇宙886)是苏联“宇宙”系列卫星中的一员,于1976年12月27日发射升空。“宇宙”系列多包含军事侦察、技术试验类任务,该卫星具体任务未公开详细披露,大概率承担军事相关或航天技术验证工作。作为冷战时期苏联航天活动的产物,它体现了当时苏联在太空领域的活跃部署,至今相关碎片仍留存在地球轨道中,是早期航天活动的见证。

Basic Information
目录编号:
9634
目录名称:
COSMOS 886
国际标识:
1976-126A
轨道中心:
EARTH
卫星名称:
COSMOS 886
卫星全名:
--
卫星状态:
在轨 (已飞行18067 天)
发射日期:
1976-12-27 UTC
国别 :
俄罗斯(独联体) (CIS)
星等 :
--
Orbit Information
数据来源 国际轨道数据 AOE轨道数据
星历时间 2026-06-15T07:46:01+0800
5小时前
查看轨道信息
2026-06-15T03:00:00+0800
10小时前
查看轨道信息
半长轴 7815.076km 7815.085km
偏心率 0.1092456 0.1092136
轨道倾角 65.836° 65.838°
近地点辐角 258.394° 258.517°
升交点赤经 77.564° 77.966°
平近点角 89.266° 270.669°
近地点 583.176km 583.434km
远地点 2290.702km 2290.462km
周期 114.593分钟 114.594分钟
每日圈数 12.566172 12.56615
Detailed Information
使用方式:
暂无
2D Orbit Map
3D Orbit Map
Orbit Altitude Analysis Chart
Orbit Inclination Analysis Chart
Orbit Comprehensive Analysis Chart
View Comprehensive Chart